Flag for Germany Weather past 2 weeks in Lörrach, Baden-Württemberg, Germany

Now
45 °F

Passing clouds.


Feels Like: 37 °F
Forecast: 35 / 49 °F
Wind: 16 mph from Northwest

Location: Bale-Mulhouse

Current Time: Mar 2, 2015 at 8:29:47 PM

Latest Report: Mar 2, 2015 at 8:00 PM


Visibility: N/A

Pressure: 30.09 "Hg

Humidity: 66%

Dew point: 34 °F

Location of LörrachLocation

Historic Weather in Lörrach — Graph

°F

Lörrach temperature yesterday

Maximum temperature yesterday: 55 °F (at 1:00 PM)
Minimum temperature yesterday: 34 °F (at 12:00 AM)
Average temperature yesterday: 44 °F

Past Weeks' High & Low Weather Summary

 TemperatureHumidityPressure
High61 °F (Feb 20, 4:00 PM)100% (Feb 22, 7:30 AM)30.69 "Hg (Feb 22, 7:30 AM)
Low28 °F (Feb 19, 4:30 AM)18% (Feb 20, 5:00 PM)29.56 "Hg (Feb 21, 6:30 AM)
Average39 °F80%30.03 "Hg
* Reported Feb 15 7:00 PM — Mar 2 7:30 PM, Lörrach, Weather by CustomWeather, © 2015

Note: Actual official high and low records may vary slightly from our data, if they occured in-between our weather recording intervals... More about our weather records

Advertising

Lörrach weather history for previous 24 hours

 ConditionsComfort  
Time TempWeatherWind HumidityBarometerVisibility
7:30 PM
Mon, Mar 2
45 °FSprinkles. Partly cloudy.21 mph71%30.07 "HgN/A
7:00 PM45 °FPartly cloudy.14 mph71%30.04 "HgN/A
6:30 PM46 °FPartly cloudy.9 mph66%30.01 "HgN/A
6:00 PM46 °FScattered clouds.12 mph66%29.98 "HgN/A
5:30 PM46 °FScattered clouds.17 mph66%29.98 "HgN/A
5:00 PM50 °FSprinkles. Broken clouds.21 mph54%29.95 "HgN/A
4:30 PM48 °FBroken clouds.12 mph71%29.95 "HgN/A
4:00 PM46 °FBroken clouds.15 mph76%29.95 "HgN/A
3:30 PM52 °FBroken clouds.16 mph67%29.92 "HgN/A
3:00 PM52 °FScattered clouds.18 mph62%29.92 "HgN/A
2:30 PM50 °FScattered clouds.20 mph67%29.89 "HgN/A
2:00 PM45 °FScattered clouds.16 mph87%29.89 "HgN/A
1:30 PM48 °FScattered showers. Broken clouds.14 mph76%29.89 "HgN/A
1:00 PM48 °FBroken clouds.15 mph82%29.89 "HgN/A
12:30 PM46 °FPartly sunny.15 mph82%29.89 "HgN/A
12:00 PM45 °FPartly sunny.12 mph87%29.89 "HgN/A
11:30 AM45 °FRain showers. Broken clouds.15 mph81%29.89 "Hg5 mi
11:00 AM45 °FRain showers. Broken clouds.15 mph87%29.86 "Hg4 mi
10:30 AM45 °FRain showers. Broken clouds.12 mph93%29.86 "Hg4 mi
10:00 AM46 °FRain showers. Broken clouds.8 mph87%29.83 "Hg4 mi
9:30 AM46 °FSprinkles. Partly sunny.15 mph87%29.83 "Hg4 mi
9:00 AM48 °FRain showers. Broken clouds.16 mph87%29.80 "Hg4 mi
8:30 AM48 °FPartly sunny.14 mph87%29.80 "HgN/A
8:00 AM48 °FRain showers. Partly sunny.24 mph87%29.77 "Hg2 mi
7:30 AM50 °FRain showers. Partly sunny.20 mph76%29.77 "Hg5 mi
7:00 AM52 °FPartly cloudy.21 mph72%29.74 "Hg2 mi
6:30 AM52 °FLight rain. Partly cloudy.15 mph77%29.74 "HgN/A
6:00 AM52 °FLight rain. Partly cloudy.17 mph77%29.74 "HgN/A
5:30 AM52 °FLight rain. Passing clouds.16 mph77%29.74 "HgN/A
5:00 AM52 °FLight rain. Passing clouds.15 mph82%29.74 "HgN/A
4:30 AM52 °FLight rain. Passing clouds.18 mph88%29.74 "Hg5 mi
4:00 AM54 °FPassing clouds.22 mph77%29.74 "HgN/A
3:30 AM54 °FPartly cloudy.22 mph77%29.74 "HgN/A
3:00 AM54 °FPartly cloudy.18 mph82%29.74 "HgN/A
2:30 AM52 °FHeavy rain. Fog.17 mph88%29.74 "Hg2 mi
2:00 AM54 °FPartly cloudy.18 mph77%29.74 "HgN/A
1:30 AM54 °FPassing clouds.17 mph77%29.74 "HgN/A
1:00 AM52 °FPartly cloudy.15 mph82%29.74 "HgN/A
12:30 AM52 °FPartly cloudy.13 mph82%29.74 "HgN/A
12:00 AM52 °FPassing clouds.13 mph82%29.77 "HgN/A
11:30 PM
Sun, Mar 1
52 °FPassing clouds.12 mph82%29.80 "HgN/A
11:00 PM52 °FPartly cloudy.5 mph77%29.80 "HgN/A
10:30 PM52 °FPartly cloudy.8 mph82%29.83 "HgN/A
10:00 PM50 °FPassing clouds.3 mph88%29.83 "HgN/A
9:30 PM50 °FLight rain. Passing clouds.2 mph88%29.83 "HgN/A
9:00 PM50 °FPassing clouds.9 mph88%29.83 "HgN/A
8:30 PM50 °FPassing clouds.6 mph88%29.83 "HgN/A
8:00 PM50 °FPassing clouds.5 mph94%29.83 "HgN/A
Weather by CustomWeather, © 2015

See weather overviewHow to use our weather pages